Theta_e
352 352 348 344 341 340 339 337 337 329 331 337 342 348 348 348 347 346 346 332 331 328 330 331 332 330 330 331 331 332 332 332 334 336 338 340 339 340
350 350 347 342 342 341 341 342 345 340 331 337 339 344 347 343 345 341 344 333 328 327 327 326 325 324 325 325 327 329 329 330 330 332 336 337 337 337
349 345 342 347 343 343 347 348 345 340 334 336 340 342 344 340 343 342 344 349 338 325 323 320 318 318 318 319 321 325 328 328 329 331 333 334 334 335
345 345 342 344 346 346 340 346 339 340 334 334 338 338 343 343 339 338 345 349 344 323 320 318 316 316 317 317 317 317 318 319 320 324 329 328 330 332
342 342 340 341 342 338 341 336 335 338 338 334 334 339 339 343 339 339 338 342 341 324 319 317 317 316 317 317 317 316 314 313 313 316 320 321 323 324
338 336 333 333 335 338 337 341 338 336 334 332 335 335 337 341 340 335 335 340 336 339 325 324 319 317 317 318 320 319 317 316 314 314 315 316 316 318
335 330 332 327 322 324 326 333 338 332 328 329 328 330 332 339 335 338 330 340 341 344 340 332 331 328 327 319 325 322 319 317 315 314 311 309 308 309
332 331 330 323 322 317 315 315 324 334 333 328 327 328 337 336 343 329 330 331 331 345 340 337 338 335 335 334 318 319 314 312 313 312 311 310 309 309
332 329 324 320 319 322 315 312 313 311 315 334 336 336 337 342 339 334 329 329 329 341 341 334 339 334 332 322 315 312 312 313 311 310 309 307 307 306
331 328 328 326 326 324 324 325 329 333 335 329 332 340 345 347 345 340 332 331 336 338 339 332 342 336 332 329 311 309 309 311 311 309 308 307 305 304
325 326 326 325 310 302 323 325 328 333 322 313 312 306 306 307 316 337 327 325 328 335 341 338 337 335 334 332 325 310 309 308 310 310 308 307 306 305
327 326 309 317 306 302 323 324 324 330 329 332 338 328 317 326 311 339 331 327 330 332 340 336 337 337 331 332 330 326 324 309 309 307 307 307 305 323
319 320 322 302 299 295 298 327 326 323 323 329 333 338 337 340 337 334 334 334 328 335 336 340 337 331 331 329 332 331 332 323 326 319 304 305 304 305
320 319 320 299 300 297 303 308 301 305 324 327 335 332 335 335 334 336 342 341 339 340 343 341 335 331 326 325 325 331 331 330 329 327 326 308 301 299
318 310 299 298 296 298 296 295 294 324 324 327 334 335 334 333 336 339 341 334 334 340 338 340 340 335 328 329 329 332 329 330 326 320 318 314 314 316
307 313 309 305 298 302 308 314 324 325 324 328 336 338 335 333 333 335 333 334 335 336 337 337 339 337 335 335 335 331 333 325 320 315 312 310 311 310
313 318 319 318 316 316 317 320 322 323 325 329 336 334 333 331 331 332 333 335 331 330 330 335 326 321 316 328 329 329 328 323 320 317 314 311 312 313
313 316 315 315 316 317 319 320 322 320 325 330 334 334 332 330 331 333 332 332 330 329 329 327 323 321 321 312 305 326 327 322 316 315 316 307 303 303
311 311 311 313 315 318 319 319 320 324 326 329 333 332 330 333 325 328 330 331 329 330 328 327 325 323 320 315 302 291 323 323 321 314 312 315 307 304
312 311 312 313 315 317 319 319 321 323 325 328 332 331 332 330 329 328 330 329 329 328 325 328 330 328 325 317 310 297 288 320 321 319 315 309 294 290
312 311 313 315 317 320 321 321 322 323 326 327 331 332 332 332 329 328 331 313 317 324 326 325 328 305 321 315 308 303 296 291 299 310 313 313 307 301
313 314 315 316 319 320 320 321 321 325 325 327 331 331 334 330 325 328 328 327 326 324 325 321 323 321 319 318 310 304 301 297 293 293 292 293 296 298
314 316 316 318 318 320 321 320 324 325 325 329 331 332 331 328 327 329 330 328 325 324 324 323 327 325 318 313 306 309 308 305 302 302 295 292 292 292
Wind_Speed
14 13 11 10 7 8 7 7 5 5 8 9 2 3 4 3 3 6 9 1 7 6 4 4 3 3 4 6 6 7 7 7 8 9 9 9 8 8
11 11 10 9 7 7 7 7 6 7 8 9 3 3 6 4 3 3 3 5 6 6 5 2 1 1 2 3 5 7 6 6 5 5 4 5 4 5
11 10 12 10 8 7 6 6 7 8 9 9 5 6 9 5 4 2 3 7 5 4 4 5 2 2 2 3 4 4 3 4 4 3 3 3 3 4
12 10 13 9 9 9 7 8 8 6 7 9 9 6 6 4 3 3 2 5 0 6 5 5 4 3 3 2 2 1 2 3 3 1 2 2 1 3
12 11 11 11 8 6 6 7 8 8 9 9 10 7 6 4 5 4 3 3 3 11 11 7 5 5 4 3 4 3 4 3 2 1 4 4 3 2
9 9 9 8 7 7 6 7 8 8 9 7 8 10 8 7 6 8 6 5 6 9 3 3 10 8 7 6 6 6 4 4 1 2 3 5 3 2
8 8 6 2 6 3 4 6 8 7 9 9 9 10 11 4 8 4 5 5 8 8 6 6 7 6 7 9 8 8 6 5 4 3 4 3 3 3
10 10 7 8 6 11 11 11 9 8 9 10 11 10 9 6 4 4 3 5 5 5 7 6 5 7 6 7 10 11 7 4 5 5 5 5 4 3
8 6 6 4 1 6 11 13 13 14 15 11 11 11 12 9 5 5 3 4 8 4 6 5 4 5 6 7 10 9 7 6 6 6 6 6 6 6
9 8 6 5 6 6 8 10 10 8 8 8 12 12 12 10 10 3 4 2 7 4 7 4 3 4 5 7 9 9 8 7 6 6 7 6 7 7
9 8 7 7 5 0 8 10 11 9 9 9 7 7 8 9 7 3 2 3 8 6 6 3 4 5 5 7 7 10 8 8 8 8 7 7 7 7
8 8 10 11 10 9 8 9 11 10 10 13 9 7 7 9 7 8 6 9 8 4 6 5 4 4 3 5 8 7 6 7 9 8 7 6 5 4
8 8 8 12 7 3 7 9 10 7 10 11 11 10 4 8 8 8 9 7 6 6 4 5 5 4 3 5 3 7 7 8 7 6 5 5 4 7
8 6 4 5 9 8 7 8 5 4 8 9 7 3 7 7 5 7 7 5 4 7 5 6 3 5 3 3 5 5 6 4 5 5 4 11 13 15
8 1 3 3 7 10 17 12 9 8 8 9 8 8 8 7 8 6 5 4 1 6 7 6 2 5 3 5 5 7 7 6 8 8 6 6 4 2
8 8 8 8 9 11 10 9 9 8 9 9 9 7 9 8 7 6 4 4 6 5 5 2 3 1 4 5 5 6 7 5 6 7 6 6 5 5
11 10 9 8 9 10 10 12 10 9 8 9 9 8 9 9 7 7 7 6 7 7 5 5 11 12 9 5 6 6 7 8 7 8 7 7 5 6
8 10 8 9 10 11 10 11 10 10 9 9 9 9 8 9 7 6 6 7 7 7 8 8 8 8 8 12 17 5 7 7 5 5 5 7 6 6
6 8 9 11 11 11 11 12 10 8 9 10 9 9 8 7 5 8 7 8 7 7 7 8 9 8 7 7 4 18 4 7 8 6 6 3 6 7
9 10 11 12 12 12 12 12 10 8 8 9 9 8 8 6 8 9 9 9 9 7 7 5 5 5 6 7 6 4 12 1 4 6 6 6 7 17
11 13 13 13 12 12 11 11 11 8 8 8 8 8 10 8 9 7 8 9 7 6 8 5 3 4 9 10 9 7 7 15 12 6 2 6 8 7
12 13 13 13 13 14 12 10 11 7 6 9 10 9 8 8 7 8 8 9 7 6 9 8 7 10 10 8 9 9 7 7 10 15 13 9 4 4
14 13 12 13 14 12 11 11 8 7 8 10 11 8 7 6 7 8 8 9 8 9 11 9 6 5 8 10 10 8 11 9 7 8 6 4 9 7
Wind_Direction
213 221 236 248 237 233 235 232 237 273 273 283 296 267 286 291 11 326 306 149 108 118 160 196 196 223 255 259 259 265 271 279 285 282 257 234 227 211
226 221 224 233 215 233 234 238 228 243 269 269 271 277 296 281 83 320 358 222 128 131 126 111 57 336 271 272 266 263 269 277 306 309 246 215 205 224
216 212 210 221 228 222 223 224 232 228 246 267 275 284 283 284 318 153 258 285 161 165 171 169 176 231 258 268 283 285 294 336 333 262 221 181 176 216
215 216 227 230 221 226 243 217 247 281 268 272 271 259 251 273 271 321 308 293 354 167 187 179 190 200 211 218 232 223 65 41 35 275 161 134 158 252
214 198 208 208 204 238 237 263 242 229 224 234 263 251 243 257 271 231 234 253 257 167 182 170 192 192 175 173 170 127 94 89 73 184 134 129 149 182
182 187 198 198 211 220 241 249 259 266 263 269 264 267 250 246 246 262 242 222 248 228 117 149 169 176 185 184 170 145 147 134 181 192 142 138 151 202
165 191 197 205 72 22 296 291 317 287 278 252 252 262 253 225 240 265 254 258 232 229 217 174 183 189 187 211 165 166 178 168 216 198 158 164 219 224
173 192 158 157 217 225 222 233 249 265 273 282 290 282 295 285 273 261 241 289 263 221 218 219 188 189 182 199 124 145 175 182 219 179 177 183 175 170
178 170 207 185 226 270 231 229 233 233 234 253 265 275 279 273 243 216 249 273 261 239 220 221 215 191 118 121 136 148 149 179 201 181 172 169 146 135
178 190 214 258 262 285 288 284 268 265 252 233 242 263 268 272 257 238 223 269 282 239 224 220 222 150 111 126 137 141 156 163 166 157 158 150 134 129
196 207 225 246 281 234 279 278 272 272 284 248 249 297 290 282 270 139 136 200 250 236 199 186 197 155 184 154 150 154 162 165 163 156 157 150 151 169
198 220 203 239 243 231 255 272 268 271 282 305 285 245 235 243 210 187 159 236 230 216 223 194 195 159 185 120 152 163 167 182 169 159 161 164 186 254
220 211 230 201 239 267 236 254 265 321 302 292 283 280 218 211 189 185 197 230 243 235 211 206 200 196 166 135 174 163 179 155 173 167 153 165 56 40
225 231 277 122 128 164 201 243 236 257 275 280 278 229 215 208 197 202 212 244 272 246 176 205 228 198 150 145 154 133 154 180 139 127 115 88 77 64
241 57 29 238 225 231 232 246 218 245 257 269 248 228 210 206 212 189 192 189 254 248 169 188 188 277 87 152 144 144 137 86 81 87 73 64 74 75
245 261 260 271 289 283 292 235 239 244 254 260 245 231 223 206 199 183 190 185 206 189 168 116 141 61 107 100 129 142 142 117 99 96 101 95 98 102
208 223 221 215 245 253 248 242 244 247 237 245 242 228 217 210 197 195 218 193 203 177 152 128 67 80 67 18 101 103 101 105 120 132 125 124 87 82
188 218 232 245 249 256 250 249 234 237 246 242 236 224 220 208 200 190 209 209 191 176 162 145 144 129 119 80 29 88 120 120 115 127 153 109 97 88
212 240 247 248 256 244 250 250 239 231 244 235 231 220 213 211 185 184 214 209 197 180 170 170 171 176 163 114 136 42 108 124 140 137 164 167 132 146
232 231 234 242 249 249 245 241 245 222 230 237 226 215 223 216 200 200 213 201 200 174 165 191 177 182 169 149 129 86 9 218 158 148 138 91 62 101
217 227 240 235 235 240 239 243 246 234 209 234 221 218 218 212 204 208 200 197 176 169 159 155 187 146 102 112 122 119 64 30 52 38 354 182 182 166
230 237 222 231 238 230 229 230 238 252 227 229 227 214 214 213 204 200 194 174 170 130 123 137 152 138 158 148 129 133 128 99 69 74 70 63 4 69
237 239 230 225 227 238 227 230 232 238 220 221 221 206 200 175 170 205 184 160 130 141 146 140 128 149 109 119 143 142 139 157 165 135 91 105 120 133